Overview Statistics Trail Chart Weather Telemetry Raw packets
 

This is the latest recevied weather packets stored in our database for station/object KH6DH-13. If no packets are shown the sender has not sent any weather packets the latest 10 day(s).

<< 52 53 54 55 56 57 58 >>
Time Temp. Humidity Pressure Rain* Wind** Luminosity Snow
1787868178 30° C - - 0 mm 1.79 m/s, 332° - -
1787867577 28.89° C - - 0 mm 1.79 m/s, 160° - -
1787866976 29.44° C - - 0 mm 1.79 m/s, 45° - -
1787866375 28.89° C - - 0 mm 0.89 m/s, 139° - -
1787865774 28.89° C - - 0 mm 1.79 m/s, 63° - -
1787865173 28.33° C - - 0 mm 2.68 m/s, 96° - -
1787864572 28.89° C - - 0 mm 1.79 m/s, 68° - -
1787863971 27.78° C - - 0 mm 1.79 m/s, 172° - -
1787863370 28.33° C - - 0 mm 0.45 m/s, 46° - -
1787862769 27.78° C - - 0 mm 1.34 m/s, 94° - -
1787862168 27.78° C - - 0 mm 1.34 m/s, 121° - -
1787861567 27.78° C - - 0 mm 1.79 m/s, 84° - -
1787860966 27.78° C - - 0 mm 2.24 m/s, 104° - -
1787860365 27.22° C - - 0 mm 0.89 m/s, 80° - -
1787859764 26.67° C - - 0 mm 1.34 m/s, 359° - -
1787859163 26.67° C - - 0 mm 0.89 m/s, 228° - -
1787858562 26.11° C - - 0 mm 0.45 m/s, 359° - -
1787857961 26.67° C - - 0 mm 0.89 m/s, 31° - -
1787857360 26.11° C - - 0 mm 1.34 m/s, 124° - -
1787856759 25.56° C - - 0 mm 1.34 m/s, 35° - -
1787856158 25° C - - 0 mm 0 m/s - -
1787855557 25° C - - 0 mm 0.89 m/s, 266° - -
1787854956 25° C - - 0 mm 0.45 m/s, 37° - -
1787854355 25° C - - 0 mm 0.89 m/s, 34° - -
1787853754 25° C - - 0 mm 0.45 m/s, 23° - -

* Rain latest hour (hover to see other rain measurements)
** Current wind speed in m/s (hover to see current wind gust speed)